Tracking 18980 objects as of 21-Feb-2018
HD Live streaming from Space Station
objects crossing your sky now

FENGYUN 1C DEB

Track FENGYUN 1C DEB now!
10-day predictions


NORAD ID: 31038
Int'l Code: 1999-025BEG
Perigee: 704.2 km
Apogee: 841.1 km
Inclination: 99.0 °
Period: 100.1 minutes
Semi major axis: 7143 km
RCS: 0.0091 m2 (small)
Launch date: May 10, 1999
Source: People's Republic of China (PRC)
Launch site: Taiyaun Space Center, China (TSC)

Note: This is SATELLITE DEBRIS
aabbcc
Your satellite tracking list
Your tracking list is empty




NASA's NSSDC Master Catalog

Two Line Element Set (TLE):
1 31038U 99025BEG 18050.62974406 +.00000247 +00000-0 +93557-4 0  9998
2 31038 099.0399 296.4309 0095832 355.0842 004.9393 14.37871317572120
Source of the keplerian elements: AFSPC